User: anonymous   Login
Location: Arrodets-la-Barthe
(43.0306°N, 0.2829°E)
Time: 16:52:41
(UTC+00:00)
Language:

H-2A R/B - Orbit

View from above orbital plane
View from above orbital plane
View from above satellite
View from above satellite

Ground track
Ground track

The orbit data is extracted from the following two-line orbital elements,

1 38341U 12025E   22025.11263435  .00000394  00000-0  53077-4 0  9997
2 38341  98.5179 230.7409 0055746 146.5061 213.9697 14.84404827524465
Epoch (UTC): 25 January 2022 02:42:11
Eccentricity: 0.0055746
inclination: 98.5179°
perigee height: 576 km
apogee height: 654 km
right ascension of ascending node: 230.7409°
argument of perigee: 146.5061°
revolutions per day: 14.84404827
mean anomaly at epoch: 213.9697°
orbit number at epoch: 52446

The dashed part of the orbit path shows where the satellite is in the earth's shadow,  

DLR